Location: Tucson
(32.2220°N, 110.9260°W)
Time: 20:46:14
(UTC-07:00)

ISS - Visible Passes

Search period start: 25 September 2017 00:00
Search period end: 05 October 2017 00:00
Orbit: 401 x 407 km, 51.6° (Epoch: 26 September)

Date Brightness Start Highest point End Pass type
(mag) Time Alt. Az. Time Alt. Az. Time Alt. Az.
25 Sep -1.4 19:59:20 10° W 20:01:52 20° NW 20:02:58 17° N visible
26 Sep -2.5 19:06:20 10° WSW 19:09:24 39° NW 19:12:30 10° NNE visible
27 Sep -0.6 19:53:37 10° NW 19:53:55 10° NNW 19:54:14 10° NNW visible
28 Sep -1.1 18:59:04 10° WNW 19:01:18 17° NW 19:03:31 10° N visible
